Location: PSU-Greenbush Astrophysical Observatory
(37.5140°N, 94.9880°W)
Time: 07:40:05
(UTC-05:00)

CUTE 1.7 + AOD 2 - Pass Details

Date: 27 February 2020
Orbit: 593 x 612 km, 97.6° (Epoch: 05 April)

Event Time Altitude Azimuth Distance (km) Brightness Sun altitude
Rises 04:23:19 0° 36° (NE) 2,837 ? -30.6°
Reaches altitude 10° 04:26:49 10° 68° (ENE) 1,928 ? -30.0°
Maximum altitude 04:28:29 12° 91° (E) 1,789 ? -29.6°
Drops below altitude 10° 04:30:09 10° 115° (ESE) 1,921 ? -29.3°
Sets 04:33:37 0° 146° (SSE) 2,817 ? -28.6°
